Weather History for Perry, IA

Change the Weather History Date:

Thursday, May 17, 2012

  Actual Average Record
Temperature  
Mean Temperature 22 °C -  
Max Temperature 31 °C 22 °C 31 °C (1992)
Min Temperature 13 °C 10 °C 1 °C (2014)
Cooling Degree Days 6    
Growing Degree Days 22 (Base 50)    
Moisture  
Dew Point 6 °C    
Average Humidity 39    
Maximum Humidity 65    
Minimum Humidity 19    
Precipitation  
Precipitation 0.00 mm - - ()
Sea Level Pressure  
Sea Level Pressure 1014 hPa    
Wind  
Wind Speed 21 km/h (SSE)    
Max Wind Speed 45 km/h    
Max Gust Speed 52 km/h    
Visibility 16 kilometers    
Events      
Averages and records for this station are not official NWS values.
T = Trace of Precipitation, MM = Missing Value Source: NWS Daily Summary

Daily Weather History Graph

Daily Weather History Graph

Search for Another Location

Airport:

Trip Planner

Search our weather history database for the weather conditions in past years. The results will help you decide how hot, cold, wet, or windy it might be!

Date:

Astronomy

May. 17, 2012 Rise Set
Actual Time 5:54 AM CDT 8:32 PM CDT
Civil Twilight 5:22 AM CDT 9:04 PM CDT
Nautical Twilight 4:42 AM CDT 9:44 PM CDT
Astronomical Twilight 3:56 AM CDT 10:30 PM CDT
Moon 3:55 AM CDT (5/17) 5:43 PM CDT (5/17)
Length of Visible Light 15h 42m
Length of Day
14h 38m
Waning Crescent, 9% of the Moon is Illuminated
May 17
Waning Crescent
May 20
New
May 28
First Quarter
Jun 4
Full
Jun 11
Last Quarter

Hourly Weather History & Observations

Time (CDT) Temp. Dew Point Humidity Pressure Visibility Wind Dir Wind Speed Gust Speed Precip Events Conditions
12:15 AM 16.1 °C 5.0 °C 48% 1016.8 hPa 16.1 km SSE 9.3 km/h / 2.6 m/s - N/A   Clear
12:35 AM 15.5 °C 5.3 °C 51% 1016.8 hPa 16.1 km SSE 11.1 km/h / 3.1 m/s - N/A   Clear
12:55 AM 14.6 °C 5.7 °C 55% 1016.8 hPa 16.1 km SSE 11.1 km/h / 3.1 m/s - N/A   Clear
1:15 AM 16.0 °C 5.8 °C 51% 1016.5 hPa 16.1 km SSE 13.0 km/h / 3.6 m/s - N/A   Clear
1:35 AM 15.9 °C 6.1 °C 52% 1016.5 hPa 16.1 km SSE 14.8 km/h / 4.1 m/s - N/A   Clear
2:15 AM 15.1 °C 6.6 °C 57% 1016.1 hPa 16.1 km SSE 13.0 km/h / 3.6 m/s - N/A   Clear
2:35 AM 14.2 °C 6.7 °C 61% 1016.1 hPa 16.1 km SSE 13.0 km/h / 3.6 m/s - N/A   Clear
2:55 AM 14.8 °C 7.0 °C 60% 1016.1 hPa 16.1 km SSE 14.8 km/h / 4.1 m/s - N/A   Clear
3:15 AM 15.0 °C 7.0 °C 59% 1015.8 hPa 16.1 km SSE 16.7 km/h / 4.6 m/s - N/A   Clear
3:55 AM 14.6 °C 7.0 °C 60% 1015.5 hPa 16.1 km SSE 18.5 km/h / 5.1 m/s - N/A   Clear
4:15 AM 14.7 °C 7.1 °C 60% 1015.5 hPa 16.1 km SSE 16.7 km/h / 4.6 m/s - N/A   Clear
4:35 AM 14.3 °C 7.1 °C 62% 1015.5 hPa 16.1 km SE 16.7 km/h / 4.6 m/s - N/A   Clear
4:55 AM 13.7 °C 7.2 °C 65% 1015.5 hPa 16.1 km SSE 13.0 km/h / 3.6 m/s - N/A   Clear
5:15 AM 14.5 °C 7.0 °C 61% 1015.5 hPa 16.1 km SSE 16.7 km/h / 4.6 m/s - N/A   Clear
5:35 AM 14.8 °C 7.0 °C 60% 1015.5 hPa 16.1 km SSE 16.7 km/h / 4.6 m/s - N/A   Clear
5:55 AM 14.3 °C 7.0 °C 62% 1015.8 hPa 16.1 km SSE 13.0 km/h / 3.6 m/s - N/A   Clear
6:15 AM 13.8 °C 7.0 °C 64% 1016.1 hPa 16.1 km SSE 13.0 km/h / 3.6 m/s - N/A   Clear
6:35 AM 14.5 °C 7.3 °C 62% 1016.5 hPa 16.1 km SSE 9.3 km/h / 2.6 m/s - N/A   Clear
6:55 AM 15.6 °C 7.2 °C 57% 1016.5 hPa 16.1 km SSE 14.8 km/h / 4.1 m/s - N/A   Clear
7:15 AM 16.6 °C 6.4 °C 51% 1016.5 hPa 16.1 km SSE 20.4 km/h / 5.7 m/s - N/A   Clear
7:35 AM 17.4 °C 6.0 °C 47% 1016.8 hPa 16.1 km SSE 18.5 km/h / 5.1 m/s - N/A   Clear
7:55 AM 18.0 °C 5.6 °C 44% 1016.8 hPa 16.1 km SSE 20.4 km/h / 5.7 m/s - N/A   Clear
8:15 AM 18.6 °C 5.8 °C 43% 1016.8 hPa 16.1 km SE 22.2 km/h / 6.2 m/s - N/A   Clear
8:35 AM 19.0 °C 5.6 °C 41% 1016.5 hPa 16.1 km SSE 25.9 km/h / 7.2 m/s - N/A   Clear
8:55 AM 20.0 °C 5.6 °C 39% 1016.1 hPa 16.1 km SSE 27.8 km/h / 7.7 m/s 35.2 km/h / 9.8 m/s N/A   Clear
9:15 AM 21.3 °C 5.2 °C 35% 1016.1 hPa 16.1 km SSE 31.5 km/h / 8.7 m/s 38.9 km/h / 10.8 m/s N/A   Clear
9:35 AM 22.0 °C 5.0 °C 33% 1015.8 hPa 16.1 km SSE 35.2 km/h / 9.8 m/s 48.2 km/h / 13.4 m/s N/A   Clear
9:55 AM 22.8 °C 4.8 °C 31% 1015.8 hPa 16.1 km South 38.9 km/h / 10.8 m/s 46.3 km/h / 12.9 m/s N/A   Clear
10:15 AM 23.3 °C 4.6 °C 30% 1015.5 hPa 16.1 km SSE 37.0 km/h / 10.3 m/s 48.2 km/h / 13.4 m/s N/A   Clear
10:35 AM 23.9 °C 4.4 °C 28% 1015.1 hPa 16.1 km SSE 40.7 km/h / 11.3 m/s 48.2 km/h / 13.4 m/s N/A   Clear
10:55 AM 24.8 °C 4.2 °C 26% 1015.1 hPa 16.1 km SSE 42.6 km/h / 11.8 m/s 51.9 km/h / 14.4 m/s N/A   Clear
11:15 AM 25.4 °C 3.9 °C 25% 1014.8 hPa 16.1 km SSE 44.4 km/h / 12.3 m/s - N/A   Clear
11:35 AM 25.8 °C 4.2 °C 25% 1014.8 hPa 16.1 km SSE 38.9 km/h / 10.8 m/s - N/A   Clear
11:55 AM 26.1 °C 4.3 °C 25% 1014.8 hPa 16.1 km SSE 37.0 km/h / 10.3 m/s 46.3 km/h / 12.9 m/s N/A   Clear
12:15 PM 26.6 °C 4.2 °C 24% 1014.4 hPa 16.1 km SSE 35.2 km/h / 9.8 m/s 51.9 km/h / 14.4 m/s N/A   Clear
12:55 PM 28.1 °C 3.9 °C 21% 1013.8 hPa 16.1 km SSE 38.9 km/h / 10.8 m/s 48.2 km/h / 13.4 m/s N/A   Clear
1:15 PM 28.5 °C 3.9 °C 21% 1013.4 hPa 16.1 km SSE 38.9 km/h / 10.8 m/s - N/A   Clear
1:35 PM 28.5 °C 4.3 °C 21% 1013.1 hPa 16.1 km SSE 37.0 km/h / 10.3 m/s 48.2 km/h / 13.4 m/s N/A   Clear
1:55 PM 29.0 °C 4.3 °C 21% 1013.1 hPa 16.1 km SSE 37.0 km/h / 10.3 m/s 51.9 km/h / 14.4 m/s N/A   Clear
2:15 PM 29.4 °C 4.3 °C 20% 1013.1 hPa 16.1 km SSE 29.6 km/h / 8.2 m/s 50.0 km/h / 13.9 m/s N/A   Clear
2:35 PM 29.8 °C 4.3 °C 20% 1012.8 hPa 16.1 km South 35.2 km/h / 9.8 m/s 48.2 km/h / 13.4 m/s N/A   Clear
2:55 PM 29.9 °C 4.2 °C 19% 1012.8 hPa 16.1 km SSE 35.2 km/h / 9.8 m/s 51.9 km/h / 14.4 m/s N/A   Clear
3:15 PM 30.1 °C 4.4 °C 20% 1012.4 hPa 16.1 km SSE 35.2 km/h / 9.8 m/s 42.6 km/h / 11.8 m/s N/A   Clear
3:35 PM 30.7 °C 4.2 °C 19% 1012.1 hPa 16.1 km SSE 35.2 km/h / 9.8 m/s 44.4 km/h / 12.3 m/s N/A   Clear
3:55 PM 30.1 °C 4.5 °C 20% 1011.7 hPa 16.1 km South 29.6 km/h / 8.2 m/s 48.2 km/h / 13.4 m/s N/A   Clear
4:15 PM 30.4 °C 4.5 °C 19% 1011.7 hPa 16.1 km South 35.2 km/h / 9.8 m/s 50.0 km/h / 13.9 m/s N/A   Clear
4:35 PM 30.4 °C 4.8 °C 20% 1011.4 hPa 16.1 km SSE 33.3 km/h / 9.3 m/s 46.3 km/h / 12.9 m/s N/A   Clear
4:55 PM 30.1 °C 5.2 °C 21% 1011.1 hPa 16.1 km South 33.3 km/h / 9.3 m/s 46.3 km/h / 12.9 m/s N/A   Clear
5:15 PM 29.7 °C 5.5 °C 22% 1011.1 hPa 16.1 km SSE 35.2 km/h / 9.8 m/s 46.3 km/h / 12.9 m/s N/A   Clear
5:35 PM 28.7 °C 5.6 °C 23% 1011.1 hPa 16.1 km SSE 35.2 km/h / 9.8 m/s 46.3 km/h / 12.9 m/s N/A   Clear
5:55 PM 28.1 °C 6.1 °C 25% 1011.1 hPa 16.1 km South 35.2 km/h / 9.8 m/s - N/A   Clear
6:35 PM 27.7 °C 6.7 °C 26% 1011.1 hPa 16.1 km SSE 33.3 km/h / 9.3 m/s - N/A   Clear
6:55 PM 27.6 °C 7.1 °C 27% 1011.1 hPa 16.1 km SSE 35.2 km/h / 9.8 m/s - N/A   Clear
7:15 PM 26.7 °C 7.0 °C 29% 1011.1 hPa 16.1 km SSE 35.2 km/h / 9.8 m/s 46.3 km/h / 12.9 m/s N/A   Clear
7:35 PM 26.3 °C 7.1 °C 29% 1011.1 hPa 16.1 km SSE 27.8 km/h / 7.7 m/s 40.7 km/h / 11.3 m/s N/A   Clear
7:55 PM 25.5 °C 7.3 °C 31% 1011.1 hPa 16.1 km SSE 31.5 km/h / 8.7 m/s 38.9 km/h / 10.8 m/s N/A   Clear
8:15 PM 24.9 °C 7.5 °C 33% 1011.4 hPa 16.1 km SSE 24.1 km/h / 6.7 m/s - N/A   Clear
8:35 PM 24.2 °C 7.7 °C 35% 1011.4 hPa 16.1 km SSE 24.1 km/h / 6.7 m/s 31.5 km/h / 8.7 m/s N/A   Clear
8:55 PM 23.1 °C 8.2 °C 38% 1011.4 hPa 16.1 km SSE 20.4 km/h / 5.7 m/s - N/A   Clear
9:15 PM 22.7 °C 8.5 °C 40% 1011.7 hPa 16.1 km SSE 20.4 km/h / 5.7 m/s - N/A   Clear
9:35 PM 22.3 °C 8.5 °C 41% 1011.7 hPa 16.1 km SSE 18.5 km/h / 5.1 m/s - N/A   Clear
9:55 PM 21.9 °C 8.4 °C 42% 1012.1 hPa 16.1 km SSE 18.5 km/h / 5.1 m/s - N/A   Clear
10:15 PM 21.3 °C 8.3 °C 43% 1012.1 hPa 16.1 km SSE 20.4 km/h / 5.7 m/s - N/A   Clear
10:55 PM 20.6 °C 8.3 °C 45% 1012.1 hPa 16.1 km SSE 20.4 km/h / 5.7 m/s - N/A   Clear
11:15 PM 20.1 °C 8.2 °C 46% 1012.1 hPa 16.1 km SSE 22.2 km/h / 6.2 m/s - N/A   Clear
11:35 PM 19.9 °C 8.1 °C 46% 1011.7 hPa 16.1 km SSE 24.1 km/h / 6.7 m/s - N/A   Clear
11:55 PM 19.8 °C 8.0 °C 46% 1011.4 hPa 16.1 km SSE 24.1 km/h / 6.7 m/s - N/A   Clear